SNEZKA Weather Reports


time (UTC)temp
C
wind
direction
speed
KPH
gust
KPH
rain 1hr
cm
rain 24hr
cm
rain mn
cm
humidity
%
barometer
mb
20260903212011 7 230 61.2 95.0 0.00 0.00 0.00 99
20260903202011 8 230 69.2 86.9 0.00 0.00 0.00 99
20260903192204 7 210 64.4 96.6 0.00 0.00 0.00 99
20260903182011 8 220 64.4 95.0 0.00 0.00 0.00 93
20260903172028 8 200 38.6 78.9 0.00 0.00 0.00 87
20260903162319 8 200 29.0 61.2 0.00 0.00 0.00 87
20260903152010 8 230 41.8 72.4 0.00 0.00 0.00 87
20260903142011 8 200 29.0 46.7 0.00 0.00 0.00 81
20260903132204 7 220 22.5 38.6 0.00 0.00 0.00 87
20260903122010 7 230 22.5 0.0 0.00 0.00 0.00 93
20260903111957 7 230 35.4 0.0 0.00 0.00 0.00 93
20260903102359 7 240 22.5 46.7 0.00 0.00 0.00 87
20260903091958 7 250 32.2 49.9 0.00 0.00 0.00 81
20260903081958 7 250 38.6 0.0 0.00 0.00 0.00 87
20260903072159 7 260 35.4 0.0 0.00 0.00 0.00 87
20260903061957 7 240 25.7 0.0 0.00 0.00 0.00 81
20260903051958 7 250 25.7 0.0 0.00 0.00 0.00 70
20260903042359 7 270 35.4 0.0 0.00 0.00 0.00 93
20260903031957 7 260 35.4 0.0 0.00 0.00 0.00 75
20260903021957 7 240 35.4 0.0 0.00 0.00 0.00 99
20260903012158 7 270 29.0 0.0 0.00 0.00 0.00 99
20260903001959 7 260 35.4 0.0 0.00 0.00 0.00 93
20260902231957 8 240 25.7 0.0 0.00 0.00 0.00 87
20260902222359 8 210 29.0 0.0 0.00 0.00 0.00 87